Location: Brahman Valley
(40.6513°N, 111.8855°W)
Time: 09:41:46
(UTC+00:00)

Tiros 1 despin weight - Pass Details

Date: 19 May 2021
Orbit: 594 x 641 km, 48.2° (Epoch: 22 June)

Event Time Altitude Azimuth Distance (km) Brightness Sun altitude
Rises 01:04:39 0° 228° (SW) 2,884 ? 16.3°
Reaches altitude 10° 01:06:57 10° 224° (SW) 1,989 ? 15.9°
Maximum altitude 01:11:28 61° 145° (SE) 717 ? 15.0°
Drops below altitude 10° 01:16:04 10° 65° (ENE) 2,022 ? 14.2°
Sets 01:18:25 0° 62° (ENE) 2,938 ? 13.8°
